sat.trackr.live / text

‹ back to catalog

THURAYA-2

NORAD 27825 · 2003-026A

PAYLOAD ACTIVE UNKNOWN

§ Identity

Operator
Country
UAE
Launch date
2003-06-10
Launch site
SEAL
Launch vehicle
Mass (kg)
RCS (m²)
10.02

Purposes: comms

External: N2YO · Heavens-Above · Gunter

§ Orbital elements

Epoch: 2026-05-24T19:23:47.114880Z

Period
1,436.08 min
Inclination
8.8058°
Eccentricity
0.0003306
Mean motion
1.00273120 rev/d
Perigee alt
35,772.3 km
Apogee alt
35,800.2 km
Semi-major
42,164.4 km
B*
0.0000e+0
RAAN
32.0753°
Arg perigee
358.8908°
Mean anomaly
186.3891°
Rev number
8,411

§ Raw data

THURAYA-21 27825U 03026A   26144.80818420  .00000119  00000+0  00000+0 0  99922 27825   8.8058  32.0753 0003306 358.8908 186.3891  1.00273120 84114

JSON: /api/v1/satellites/27825 · /tle

For live sub-satellite position, see the globe view (requires WebGL).

§ Visibility from observer

Set your observer location to see the next 7 days of passes ≥ 10°. The values pass through the URL so the page stays shareable.

No JS? Fill the form by hand. The geolocation button needs JavaScript.